CW9769 Weather Reports


Display with metric or nautical units.
time (UTC)temp
F
wind
direction
speed
MPH
gust
MPH
rain 1hr
in
rain 24hr
in
rain mn
in
humidity
%
barometer
mb
20260504042444 49 247 5.0 10.0 0.00 0.00 0.00 66 1011.1
20260504041444 49 247 4.0 10.0 0.00 0.00 0.00 66 1011.1
20260504040443 49 248 3.0 10.0 0.00 0.00 0.00 66 1011.4
20260504035441 49 236 5.0 8.0 0.00 0.00 0.00 66 1011.4
20260504034440 49 253 4.0 9.0 0.00 0.00 0.00 67 1011.4
20260504033439 50 242 3.0 9.0 0.00 0.00 0.00 67 1011.7
20260504032438 50 243 3.0 8.0 0.00 0.00 0.00 65 1011.7
20260504031438 51 242 2.0 7.0 0.00 0.00 0.00 65 1011.7
20260504030437 51 254 2.0 9.0 0.00 0.00 0.00 65 1011.7
20260504025436 51 252 4.0 9.0 0.00 0.00 0.00 64 1012.1
20260504024333 51 259 4.0 10.0 0.00 0.00 0.00 64 1012.1
20260504023332 51 263 5.0 10.0 0.00 0.00 0.00 64 1012.0
20260504022331 51 267 5.0 10.0 0.00 0.00 0.00 63 1012.0
20260504021331 51 258 4.0 12.0 0.00 0.00 0.00 62 1012.0
20260504020330 51 261 5.0 13.0 0.00 0.00 0.00 62 1012.0
20260504015329 51 267 5.0 11.0 0.00 0.00 0.00 62 1012.3
20260504014328 51 271 8.0 12.0 0.00 0.00 0.00 61 1012.3
20260504013327 52 276 7.0 14.0 0.00 0.00 0.00 62 1012.3
20260504012327 52 285 7.0 17.0 0.00 0.00 0.00 60 1012.3
20260504011326 52 293 12.0 20.0 0.00 0.00 0.00 59 1012.2
20260504010254 52 295 10.0 20.0 0.00 0.00 0.00 58 1012.2
20260504005253 53 309 13.0 20.0 0.00 0.00 0.00 55 1012.2
20260504004150 54 316 12.0 20.0 0.00 0.00 0.00 51 1011.9
20260504003149 55 287 9.0 16.0 0.00 0.00 0.00 46 1011.5
20260504002117 55 287 6.0 14.0 0.00 0.00 0.00 46 1011.5
20260504001116 56 284 8.0 17.0 0.00 0.00 0.00 44 1011.1
20260504000116 56 290 9.0 18.0 0.00 0.00 0.00 44 1011.1
20260503235044 57 288 7.0 18.0 0.00 0.00 0.00 44 1011.4
20260503234043 58 286 7.0 19.0 0.00 0.00 0.00 42 1011.4
20260503233043 58 296 13.0 23.0 0.00 0.00 0.00 39 1011.4
20260503232042 59 300 11.0 28.0 0.00 0.00 0.00 40 1011.4
20260503231041 59 290 10.0 22.0 0.00 0.00 0.00 39 1011.4
20260503230009 59 296 11.0 22.0 0.00 0.00 0.00 40 1011.4
20260503225008 59 288 17.0 23.0 0.00 0.00 0.00 39 1011.4
20260503224008 58 298 12.0 24.0 0.00 0.00 0.00 40 1011.7
20260503222904 59 302 14.0 24.0 0.00 0.00 0.00 40 1011.7
20260503221904 59 302 13.0 24.0 0.00 0.00 0.00 40 1011.7
20260503220902 59 293 14.0 23.0 0.00 0.00 0.00 40 1011.7
20260503215831 59 306 12.0 22.0 0.00 0.00 0.00 41 1011.7
20260503214830 59 294 11.0 23.0 0.00 0.00 0.00 41 1011.7
20260503213829 60 287 18.0 23.0 0.00 0.00 0.00 40 1011.8
20260503212828 60 298 14.0 26.0 0.00 0.00 0.00 39 1011.8
20260503211827 60 302 15.0 27.0 0.00 0.00 0.00 38 1011.8
20260503210826 61 295 14.0 26.0 0.00 0.00 0.00 41 1011.8
20260503205723 62 289 14.0 26.0 0.00 0.00 0.00 42 1012.2
20260503204722 61 311 12.0 24.0 0.00 0.00 0.00 41 1012.2
20260503203650 60 291 14.0 24.0 0.00 0.00 0.00 39 1012.1
20260503202649 60 298 16.0 23.0 0.00 0.00 0.00 39 1012.5
20260503201648 60 267 12.0 24.0 0.00 0.00 0.00 41 1012.5
20260503200646 61 283 11.0 25.0 0.00 0.00 0.00 39 1012.5
20260503195646 61 304 14.0 27.0 0.00 0.00 0.00 42 1012.9
20260503194645 60 275 15.0 25.0 0.00 0.00 0.00 40 1012.8
20260503193613 60 283 12.0 23.0 0.00 0.00 0.00 43 1013.2
20260503192611 61 285 12.0 24.0 0.00 0.00 0.00 41 1013.2
20260503191610 61 285 14.0 24.0 0.00 0.00 0.00 40 1013.5
20260503190609 60 284 10.0 26.0 0.00 0.00 0.00 40 1013.5
20260503185537 60 300 11.0 21.0 0.00 0.00 0.00 39 1013.8
20260503184537 60 287 12.0 22.0 0.00 0.00 0.00 38 1013.9
20260503183536 60 297 12.0 24.0 0.00 0.00 0.00 42 1013.8
20260503182535 60 300 12.0 25.0 0.00 0.00 0.00 38 1013.8
20260503181535 60 289 16.0 25.0 0.00 0.00 0.00 39 1014.2
20260503180533 59 296 13.0 21.0 0.00 0.00 0.00 43 1014.1
20260503175533 59 301 10.0 21.0 0.00 0.00 0.00 43 1014.5
20260503174532 60 282 13.0 21.0 0.00 0.00 0.00 44 1014.5
20260503173531 60 302 13.0 18.0 0.00 0.00 0.00 44 1014.5
20260503172530 59 304 10.0 20.0 0.00 0.00 0.00 47 1014.5
20260503171529 59 295 13.0 21.0 0.00 0.00 0.00 47 1015.2
20260503170528 58 300 12.0 22.0 0.00 0.00 0.00 48 1014.8
20260503150222 53 310 12.0 20.0 0.00 0.00 0.00 51 1016.1
20260503140146 50 272 12.0 17.0 0.00 0.00 0.00 52 1016.0
20260503131142 47 282 7.0 11.0 0.00 0.00 0.00 56 1016.2
20260503130141 45 275 6.0 11.0 0.00 0.00 0.00 62 1016.2
20260503110825 35 276 3.0 7.0 0.00 0.01 0.00 80 1015.9
20260503081607 36 304 2.0 5.0 0.00 0.03 0.00 75 1016.0
20260503080607 36 303 2.0 5.0 0.00 0.03 0.00 76 1015.6
20260503072603 37 296 3.0 6.0 0.00 0.03 0.00 77 1015.7
20260503071602 37 297 2.0 5.0 0.00 0.03 0.00 78 1015.7
20260503070601 37 301 3.0 5.0 0.00 0.03 0.00 78 1015.7
20260503054554 37 298 2.0 5.0 0.00 0.04 0.00 83 1016.0
20260503053553 37 291 1.0 3.0 0.00 0.04 0.00 84 1016.0
20260503052553 37 291 1.0 3.0 0.00 0.04 0.00 83 1016.0
20260503051552 38 292 1.0 4.0 0.00 0.04 0.00 83 1016.0
20260503050551 38 273 3.0 4.0 0.00 0.04 0.00 82 1016.0
20260503045551 38 272 3.0 4.0 0.00 0.04 0.00 82 1016.0
20260503044519 38 270 1.0 3.0 0.00 0.04 0.00 82 1016.0
20260503043518 39 279 2.0 3.0 0.00 0.04 0.00 80 1016.0